Temp
-13 -13 -13 -13 -13 -13 -13 -13 -13 -13 -13 -13 -13 -13 -13 -13 -13 -13 -13 -13 -13 -13 -13 -13 -13 -13 -13 -13 -13 -13 -14 -14 -14 -14 -14 -14 -14 -13
-14 -13 -13 -13 -13 -13 -13 -13 -13 -13 -13 -13 -12 -12 -12 -13 -13 -13 -13 -13 -13 -13 -13 -13 -13 -13 -13 -13 -13 -13 -13 -13 -14 -14 -14 -14 -13 -13
-14 -14 -13 -13 -13 -13 -13 -13 -13 -13 -13 -13 -13 -12 -12 -12 -12 -12 -13 -13 -13 -13 -13 -13 -13 -13 -13 -13 -13 -13 -13 -13 -13 -13 -13 -13 -13 -13
-14 -14 -13 -13 -13 -13 -13 -13 -12 -12 -12 -13 -12 -12 -12 -12 -12 -12 -12 -12 -12 -12 -12 -12 -12 -13 -13 -14 -14 -13 -13 -13 -13 -13 -13 -13 -14 -14
-13 -13 -13 -13 -13 -12 -12 -12 -12 -12 -12 -12 -12 -12 -12 -12 -12 -12 -12 -12 -12 -12 -12 -12 -12 -12 -12 -13 -13 -13 -14 -14 -13 -13 -13 -13 -13 -13
-13 -13 -13 -13 -13 -13 -12 -12 -12 -12 -12 -12 -13 -12 -12 -12 -12 -12 -12 -12 -12 -13 -13 -12 -12 -12 -13 -13 -13 -13 -13 -13 -14 -14 -14 -13 -14 -13
-13 -13 -13 -13 -13 -12 -12 -12 -12 -12 -12 -12 -12 -12 -12 -12 -12 -12 -12 -12 -12 -13 -13 -13 -13 -13 -13 -13 -13 -13 -13 -13 -13 -14 -14 -14 -14 -14
-13 -13 -13 -13 -13 -13 -13 -13 -13 -13 -13 -13 -13 -13 -12 -12 -12 -13 -13 -13 -13 -13 -13 -13 -13 -13 -13 -14 -14 -14 -13 -14 -14 -14 -14 -14 -14 -14
-14 -14 -14 -14 -14 -13 -13 -14 -14 -13 -13 -13 -13 -13 -13 -13 -13 -13 -12 -12 -12 -13 -13 -13 -14 -14 -14 -14 -14 -14 -14 -14 -14 -14 -15 -15 -15 -15
-15 -15 -15 -15 -14 -14 -14 -14 -14 -14 -14 -14 -14 -14 -14 -14 -13 -13 -13 -13 -13 -13 -13 -14 -15 -15 -15 -15 -15 -15 -15 -16 -16 -16 -16 -16 -16 -16
-16 -15 -15 -15 -15 -15 -15 -15 -15 -15 -14 -14 -14 -14 -14 -14 -14 -14 -14 -14 -14 -15 -15 -15 -17 -16 -17 -17 -16 -16 -17 -17 -16 -16 -16 -16 -16 -16
-16 -16 -16 -16 -16 -15 -15 -15 -15 -15 -15 -15 -15 -15 -15 -15 -15 -15 -15 -15 -16 -16 -17 -17 -18 -18 -18 -18 -17 -17 -17 -17 -18 -18 -17 -17 -17 -17
-17 -16 -17 -17 -17 -16 -16 -16 -16 -16 -16 -16 -16 -16 -16 -16 -16 -16 -17 -17 -18 -18 -18 -18 -19 -19 -19 -19 -19 -18 -18 -18 -18 -19 -19 -19 -19 -19
-17 -17 -17 -17 -17 -17 -17 -17 -17 -17 -17 -17 -17 -17 -17 -17 -18 -18 -19 -19 -19 -19 -19 -20 -20 -21 -20 -20 -19 -19 -19 -19 -20 -20 -20 -20 -20 -19
-18 -18 -18 -18 -18 -18 -18 -18 -17 -17 -17 -17 -17 -18 -19 -19 -19 -19 -20 -20 -20 -20 -21 -21 -22 -21 -21 -21 -21 -20 -20 -20 -21 -21 -21 -21 -21 -20
-19 -19 -19 -19 -19 -19 -18 -18 -18 -18 -18 -18 -19 -19 -19 -20 -20 -20 -20 -21 -21 -22 -22 -23 -23 -22 -21 -21 -21 -21 -21 -22 -22 -22 -22 -22 -21 -21
-20 -20 -20 -20 -19 -19 -19 -19 -19 -19 -19 -19 -20 -20 -20 -21 -21 -21 -21 -22 -23 -23 -23 -23 -23 -22 -22 -22 -22 -22 -22 -23 -22 -23 -23 -22 -22 -21
-21 -21 -21 -21 -20 -20 -20 -20 -20 -20 -20 -21 -21 -22 -22 -22 -23 -23 -24 -24 -23 -23 -23 -23 -23 -23 -23 -23 -23 -23 -23 -23 -23 -23 -23 -23 -23 -21
-22 -22 -22 -22 -21 -21 -21 -21 -21 -22 -22 -22 -23 -24 -24 -23 -23 -23 -24 -24 -24 -24 -23 -23 -23 -23 -24 -24 -24 -24 -24 -24 -24 -23 -23 -23 -23 -22
-23 -23 -23 -23 -23 -23 -22 -22 -23 -23 -24 -24 -24 -24 -24 -24 -24 -24 -24 -24 -24 -24 -23 -23 -24 -24 -24 -24 -24 -24 -24 -24 -24 -24 -24 -23 -23 -22
-25 -25 -24 -24 -24 -24 -23 -24 -24 -25 -25 -25 -24 -24 -24 -24 -24 -24 -24 -24 -24 -24 -24 -24 -24 -24 -24 -24 -24 -24 -24 -24 -24 -24 -24 -23 -23 -22
-26 -26 -25 -25 -25 -25 -25 -25 -25 -25 -25 -25 -25 -25 -24 -24 -24 -24 -24 -24 -24 -24 -24 -24 -24 -24 -24 -24 -24 -24 -24 -24 -24 -24 -24 -23 -23 -22
-27 -26 -26 -26 -26 -26 -26 -26 -26 -26 -26 -25 -25 -25 -25 -25 -24 -24 -25 -24 -24 -24 -24 -24 -24 -24 -24 -24 -24 -24 -24 -24 -24 -24 -24 -24 -23 -22
Height
5701 5700 5700 5701 5700 5700 5699 5697 5696 5694 5691 5691 5689 5688 5686 5684 5682 5680 5677 5674 5671 5668 5665 5663 5660 5656 5653 5650 5648 5647 5647 5645 5644 5644 5646 5648 5649 5650
5696 5693 5693 5693 5693 5692 5691 5690 5689 5688 5686 5684 5682 5681 5679 5678 5676 5673 5671 5668 5665 5663 5660 5658 5656 5654 5652 5650 5649 5647 5646 5645 5644 5644 5644 5644 5645 5646
5690 5688 5686 5686 5685 5684 5683 5682 5681 5680 5679 5676 5675 5674 5672 5671 5669 5667 5664 5662 5659 5657 5655 5652 5650 5649 5647 5646 5644 5643 5642 5642 5641 5641 5641 5640 5639 5638
5682 5681 5678 5678 5676 5675 5674 5673 5672 5671 5670 5668 5665 5664 5662 5661 5660 5659 5657 5655 5652 5650 5648 5647 5644 5642 5641 5640 5639 5637 5636 5635 5634 5633 5632 5632 5632 5632
5672 5671 5670 5668 5667 5666 5665 5663 5662 5661 5660 5659 5656 5653 5651 5650 5649 5648 5646 5645 5643 5641 5639 5638 5637 5636 5634 5632 5631 5630 5630 5629 5628 5626 5625 5624 5623 5622
5661 5659 5658 5656 5655 5654 5653 5652 5651 5650 5648 5647 5646 5644 5642 5639 5638 5636 5634 5633 5632 5630 5628 5627 5626 5625 5624 5623 5622 5620 5619 5618 5617 5616 5616 5615 5613 5612
5649 5647 5646 5645 5643 5642 5641 5640 5639 5637 5636 5634 5633 5631 5629 5627 5625 5623 5621 5620 5618 5617 5615 5614 5613 5612 5610 5609 5609 5608 5607 5606 5605 5605 5604 5603 5603 5602
5638 5636 5635 5634 5632 5630 5629 5627 5626 5624 5622 5620 5618 5616 5614 5613 5610 5608 5606 5605 5604 5602 5601 5599 5598 5596 5595 5595 5594 5593 5592 5591 5591 5590 5589 5589 5588 5589
5627 5626 5624 5622 5621 5619 5618 5616 5614 5611 5609 5607 5605 5602 5600 5598 5596 5594 5591 5589 5587 5585 5583 5582 5580 5579 5578 5577 5576 5576 5575 5575 5574 5573 5573 5572 5572 5572
5615 5614 5612 5609 5607 5606 5606 5603 5601 5598 5595 5592 5590 5588 5585 5583 5580 5577 5575 5572 5570 5567 5564 5563 5560 5560 5560 5559 5559 5558 5557 5557 5557 5556 5557 5557 5557 5556
5601 5599 5597 5595 5593 5590 5589 5587 5585 5581 5579 5577 5575 5571 5567 5564 5561 5558 5555 5553 5550 5548 5545 5545 5542 5540 5540 5540 5540 5539 5539 5539 5539 5539 5540 5540 5540 5539
5583 5582 5580 5578 5576 5574 5572 5570 5567 5562 5562 5558 5555 5552 5548 5544 5540 5537 5535 5532 5531 5529 5526 5524 5522 5521 5522 5521 5521 5520 5521 5522 5521 5521 5521 5521 5522 5522
5565 5563 5562 5560 5558 5556 5554 5551 5549 5545 5542 5539 5535 5532 5528 5524 5521 5517 5515 5512 5509 5507 5506 5504 5504 5502 5503 5503 5503 5503 5502 5502 5502 5503 5503 5503 5502 5503
5549 5547 5544 5542 5540 5538 5536 5534 5531 5527 5524 5521 5517 5512 5507 5503 5499 5498 5495 5491 5489 5488 5485 5485 5485 5484 5485 5485 5485 5484 5485 5485 5485 5485 5486 5486 5487 5487
5531 5528 5526 5524 5522 5520 5517 5514 5512 5509 5505 5500 5496 5492 5487 5483 5481 5478 5476 5473 5471 5470 5468 5467 5468 5468 5468 5469 5470 5468 5469 5470 5470 5471 5471 5472 5472 5472
5512 5510 5508 5506 5503 5501 5498 5495 5492 5489 5486 5482 5477 5474 5470 5467 5463 5460 5457 5455 5454 5453 5451 5451 5452 5453 5452 5454 5454 5454 5455 5455 5455 5456 5456 5457 5457 5458
5492 5490 5489 5487 5486 5483 5480 5476 5473 5470 5468 5465 5461 5457 5453 5450 5446 5443 5440 5439 5439 5439 5438 5438 5438 5439 5439 5440 5440 5440 5441 5442 5442 5443 5445 5446 5444 5445
5472 5472 5470 5469 5467 5464 5461 5459 5456 5453 5451 5448 5445 5441 5438 5435 5432 5429 5427 5427 5427 5426 5426 5425 5424 5425 5426 5427 5428 5428 5429 5430 5431 5433 5434 5435 5433 5434
5455 5454 5453 5451 5449 5446 5444 5442 5439 5437 5435 5433 5431 5428 5426 5423 5420 5418 5416 5415 5415 5415 5415 5414 5413 5413 5414 5416 5417 5418 5420 5421 5423 5423 5424 5425 5425 5423
5438 5437 5436 5434 5432 5430 5428 5427 5425 5424 5422 5421 5420 5418 5416 5414 5411 5409 5406 5404 5403 5403 5404 5404 5404 5403 5404 5406 5408 5409 5410 5412 5413 5414 5415 5415 5416 5415
5421 5421 5420 5419 5417 5416 5415 5415 5414 5413 5412 5411 5410 5409 5407 5405 5403 5401 5398 5395 5393 5393 5393 5394 5394 5395 5397 5397 5399 5401 5402 5403 5404 5405 5406 5406 5407 5406
5405 5405 5404 5403 5403 5403 5403 5403 5404 5404 5404 5404 5402 5400 5398 5396 5394 5391 5389 5387 5385 5383 5383 5384 5385 5387 5388 5389 5391 5393 5394 5395 5396 5397 5398 5398 5398 5397
5388 5388 5389 5389 5389 5390 5392 5393 5393 5395 5396 5395 5394 5392 5390 5388 5385 5381 5379 5378 5377 5376 5375 5375 5376 5378 5379 5381 5383 5385 5386 5387 5388 5389 5389 5390 5390 5391
Wind_Speed
23 28 28 26 26 24 24 23 24 26 28 25 25 24 23 22 22 22 23 23 24 24 24 23 23 21 17 15 13 13 15 11 7 12 14 13 14 18
23 25 30 30 29 28 27 27 27 28 31 30 29 29 28 26 26 25 25 26 28 28 28 26 22 21 20 19 17 14 13 13 17 21 22 24 25 24
28 26 28 31 32 31 31 31 31 31 32 35 34 33 34 34 32 33 33 33 33 33 32 33 31 27 23 22 20 20 19 17 16 18 20 21 22 23
32 31 32 32 35 36 36 36 36 35 34 37 39 38 38 38 38 39 39 40 40 38 37 34 34 34 34 30 27 24 23 24 24 25 23 24 26 28
36 35 34 35 37 38 39 39 39 39 39 39 41 42 42 42 42 42 43 43 43 42 42 41 39 38 37 37 36 34 30 28 27 27 28 30 31 31
38 38 40 40 40 41 41 42 42 43 43 43 44 45 47 48 48 49 49 49 49 49 49 48 47 46 45 42 42 42 39 38 36 34 34 32 33 35
42 43 43 44 44 46 45 46 46 47 48 49 49 50 51 52 53 54 54 55 55 54 54 54 53 53 52 51 49 45 45 45 43 43 40 38 38 37
41 41 40 40 42 42 43 44 44 44 46 47 48 50 52 53 56 57 58 58 58 58 59 58 57 57 56 55 54 53 53 52 51 48 47 46 43 44
40 41 42 42 43 44 44 43 43 45 47 49 51 52 52 53 54 56 57 58 59 59 60 61 61 60 60 58 56 55 56 56 55 54 52 51 49 48
47 46 46 47 48 49 49 51 53 53 55 57 57 57 57 58 59 60 61 62 62 63 63 62 62 62 61 60 59 58 57 56 56 55 54 53 52 51
55 56 55 56 57 56 58 58 59 59 61 61 61 62 64 64 66 67 68 68 67 67 67 65 63 63 62 61 60 59 59 58 57 57 56 55 54 53
53 56 55 56 58 60 60 62 63 64 64 66 67 69 71 72 73 74 75 73 72 70 66 67 63 63 62 61 59 60 60 60 59 57 56 56 55 54
59 60 61 61 61 62 62 63 65 67 68 70 72 74 77 78 76 76 72 68 63 61 60 62 60 60 58 59 59 58 58 58 60 60 59 57 56 55
62 62 62 63 63 63 64 64 66 68 71 73 77 78 74 70 69 66 62 61 60 59 59 56 54 57 54 53 55 54 55 52 52 54 55 56 54 52
63 63 62 62 62 62 63 66 68 71 73 75 73 68 64 62 59 59 59 59 58 56 54 54 54 52 52 55 49 48 50 45 42 42 42 46 48 49
60 59 59 60 60 61 63 66 69 71 70 65 62 61 61 60 58 58 58 57 54 48 43 47 49 49 48 50 49 45 44 41 38 41 43 44 45 43
58 58 58 59 59 60 62 63 63 62 59 57 58 58 57 55 53 52 50 46 41 38 39 41 45 46 44 43 41 40 39 38 39 40 35 36 40 39
52 54 55 57 58 60 59 57 55 54 54 53 51 48 45 42 41 40 39 39 38 36 38 35 38 38 39 39 37 36 37 36 34 31 31 32 35 36
51 53 54 55 55 53 52 49 48 47 46 42 38 37 36 35 36 37 35 36 35 36 37 37 32 33 37 37 35 35 33 30 28 29 30 30 32 35
53 54 53 50 47 45 43 42 41 39 36 34 32 31 32 30 31 30 32 36 38 36 36 34 29 30 34 32 30 30 30 29 30 29 30 30 31 33
51 49 47 44 41 39 38 36 35 31 28 28 30 31 32 32 32 32 28 27 31 35 35 34 32 29 28 29 31 28 27 28 26 26 27 29 32 32
45 43 42 40 38 35 33 32 31 26 23 21 21 23 25 28 32 34 33 29 26 28 33 34 33 28 24 22 25 26 23 23 26 27 29 31 30 28
43 41 39 37 36 35 33 32 28 25 26 24 21 22 23 25 28 33 32 32 29 25 25 29 29 28 26 24 24 26 27 27 27 28 25 25 24 22
Wind_Direction
280 262 261 266 272 276 278 280 283 287 290 286 278 279 283 288 293 301 309 318 325 331 338 346 354 358 347 340 336 315 300 289 259 240 246 257 254 249
289 274 259 261 267 272 276 279 280 279 281 284 284 282 282 282 286 289 295 301 308 314 319 325 332 337 342 345 334 321 310 299 275 268 261 259 263 262
282 279 268 263 265 267 271 275 276 277 278 281 282 281 281 281 281 284 288 292 296 301 307 311 314 316 318 322 327 327 319 303 288 279 275 270 267 267
280 276 272 268 266 268 272 276 277 276 275 277 280 280 280 281 282 281 282 286 288 292 295 298 303 306 307 308 308 307 310 312 306 294 285 278 276 275
280 277 274 274 273 273 274 275 275 274 273 273 273 274 275 276 276 278 280 281 282 284 285 287 288 290 292 295 296 296 295 293 293 292 290 285 279 276
278 275 272 271 271 272 273 274 275 277 277 277 276 275 276 276 276 276 277 278 279 279 280 281 282 285 285 284 286 287 286 286 287 287 289 287 285 282
278 277 276 276 276 276 277 278 279 280 281 281 280 280 279 279 280 280 280 280 279 279 279 279 281 280 279 278 277 275 280 280 279 281 281 281 282 280
277 277 278 279 279 280 280 282 284 285 284 284 285 284 282 282 281 281 281 281 281 281 281 280 279 278 278 277 276 275 275 276 275 273 274 275 277 278
273 274 276 278 279 280 282 284 285 285 285 285 286 286 288 288 287 286 286 286 284 282 281 280 279 278 277 276 275 274 273 272 272 272 273 273 274 274
276 277 279 280 281 282 283 283 284 284 284 285 285 285 285 285 284 282 282 282 280 279 278 276 275 276 275 274 273 272 270 270 270 269 269 269 269 269
276 276 275 278 279 279 281 280 280 282 282 284 285 285 286 287 286 284 283 282 281 280 279 277 274 272 271 272 272 271 270 269 269 268 268 268 268 268
274 276 276 276 277 278 280 280 281 281 284 285 286 288 289 289 288 286 284 284 284 283 280 278 275 273 273 271 271 272 272 271 268 267 266 266 267 266
277 279 280 280 281 280 280 281 282 285 286 289 290 291 292 292 291 288 287 285 282 280 277 276 272 272 271 269 271 270 269 269 268 265 264 264 263 265
278 279 280 280 280 280 281 282 285 287 290 292 294 294 293 290 288 287 284 281 280 279 276 274 270 267 267 269 268 267 269 272 273 272 270 268 268 269
279 279 281 280 281 283 285 286 288 290 293 296 295 291 288 286 285 284 281 280 279 277 275 273 268 268 268 269 276 272 269 268 270 272 274 273 270 270
278 278 279 280 283 285 287 289 290 293 294 291 289 287 287 286 284 281 280 279 279 277 274 273 270 270 272 269 270 273 272 267 264 263 262 265 268 269
276 277 278 281 284 287 290 292 292 290 288 287 287 285 284 283 282 281 280 278 274 267 273 272 269 270 270 272 264 267 263 261 263 265 268 268 268 269
277 279 283 286 289 290 290 288 287 287 287 286 285 285 284 283 282 283 278 272 269 269 270 276 266 265 269 270 260 258 257 258 264 267 266 266 269 270
283 286 288 289 288 286 285 285 285 285 285 284 285 285 287 286 286 283 281 277 276 274 274 278 273 264 261 261 258 260 260 265 264 267 263 264 267 273
286 287 286 284 284 283 283 283 281 280 280 282 285 284 286 286 293 292 287 280 270 266 268 269 270 265 264 264 257 254 262 260 266 262 265 265 268 273
283 284 282 280 279 279 278 275 272 273 271 274 276 275 276 279 280 280 285 285 274 267 262 262 259 267 267 264 259 260 266 265 258 263 266 269 274 274
277 278 278 276 277 273 269 262 262 259 267 272 279 284 286 287 285 279 279 276 282 277 266 261 257 259 254 262 255 256 267 262 259 267 270 272 273 273
272 272 269 266 266 263 255 256 250 254 260 266 275 288 295 299 288 282 277 275 271 276 274 262 256 248 250 247 253 255 255 257 263 268 267 269 270 272